Back to catalog

CZ-6A DEB

AlivePO
NORAD 64655·DEBRIS·🇨🇳 China

Launched Aug 6, 2024 from Taiyuan Satellite Launch Center

Loading…

Next Passes (next 24 hours)

TLE

FreshSource: Space-Track

Epoch: Sep 13, 2026, 11:21 UTC

1 64655U 24140AEV 26256.47356268  .00002537  00000-0  91056-3 0  9990
2 64655  89.1116 274.0377 0071872 292.7700  66.5914 14.32220380 97176

Track CZ-6A DEB in real time with AllMySat

Download on the App Store